�N����,�����b,���ԉ��x,�t���O,���Ԏ��x,�t���O,��󒲎�,�t���O,�����W,�t���O
2003/9/1,0:04:00,26.8,0,62.8,0,24,0,26.2,0
2003/9/1,0:19:00,26.7,0,63.2,0,24,0,26.2,0
2003/9/1,0:34:00,26.6,0,63.5,0,24,0,26.1,0
2003/9/1,0:49:00,26.4,0,63.7,0,24,0,26.1,0
2003/9/1,1:04:00,26.3,0,63.9,0,24,0,26.1,0
2003/9/1,1:19:00,26.2,0,64.1,0,24,0,26,0
2003/9/1,1:34:00,26.1,0,64.4,0,24,0,26,0
2003/9/1,1:49:00,26,0,64.6,0,23.9,0,26,0
2003/9/1,2:04:00,26,0,64.8,0,23.9,0,25.9,0
2003/9/1,2:19:00,25.9,0,65,0,23.9,0,25.9,0
2003/9/1,2:34:00,25.8,0,65.1,0,23.9,0,25.8,0
2003/9/1,2:49:00,25.7,0,65.2,0,23.9,0,25.8,0
2003/9/1,3:04:00,25.7,0,65.4,0,23.9,0,25.7,0
2003/9/1,3:19:00,25.6,0,65.5,0,23.9,0,25.7,0
2003/9/1,3:34:00,25.6,0,65.6,0,23.9,0,25.7,0
2003/9/1,3:49:00,25.5,0,65.7,0,23.9,0,25.7,0
2003/9/1,4:04:00,25.5,0,65.8,0,23.9,0,25.6,0
2003/9/1,4:19:00,25.4,0,65.9,0,23.9,0,25.6,0
2003/9/1,4:34:00,25.4,0,66,0,23.8,0,25.6,0
2003/9/1,4:49:00,25.3,0,66.2,0,23.8,0,25.6,0
2003/9/1,5:04:00,25.3,0,66.2,0,23.8,0,25.5,0
2003/9/1,5:19:00,25.3,0,66.2,0,23.8,0,25.5,0
2003/9/1,5:34:00,25.2,0,66.3,0,23.8,0,25.5,0
2003/9/1,5:49:00,25.2,0,66.2,0,23.8,0,25.8,0
2003/9/1,6:04:00,25.2,0,66.2,0,23.8,0,27.6,0
2003/9/1,6:19:00,25.2,0,66.3,0,23.8,0,27.6,0
2003/9/1,6:34:00,25.2,0,66.6,0,23.8,0,27,0
2003/9/1,6:49:00,25.3,0,66.9,0,23.7,0,26.7,0
2003/9/1,7:04:00,25.4,0,67.1,0,23.8,0,26.3,0
2003/9/1,7:19:00,25.6,0,66.9,0,23.8,0,26.1,0
2003/9/1,7:34:00,25.8,0,66.8,0,23.8,0,26.1,0
2003/9/1,7:49:00,26,0,66.5,0,23.9,0,26.2,0
2003/9/1,8:04:00,26.1,0,66.3,0,23.9,0,26.2,0
2003/9/1,8:19:00,26.3,0,65.9,0,24,0,26.2,0
2003/9/1,8:34:00,26.5,0,65.4,0,24,0,26.2,0
2003/9/1,8:49:00,26.6,0,65,0,24.1,0,26.2,0
2003/9/1,9:04:00,26.7,0,64.9,0,24.2,0,26.3,0
2003/9/1,9:19:00,26.7,0,64.9,0,24.3,0,26.3,0
2003/9/1,9:34:00,26.7,0,64.9,0,24.3,0,26.3,0
2003/9/1,9:49:00,26.6,0,64.9,0,24.4,0,26.4,0
2003/9/1,10:04:00,26.6,0,65.1,0,24.4,0,26.4,0
2003/9/1,10:19:00,26.6,0,65.3,0,24.4,0,26.4,0
2003/9/1,10:34:00,26.6,0,65.5,0,24.5,0,26.5,0
2003/9/1,10:49:00,26.6,0,65.8,0,24.5,0,26.6,0
2003/9/1,11:04:00,26.7,0,66.4,0,24.6,0,26.6,0
2003/9/1,11:19:00,26.8,0,66.6,0,24.6,0,26.7,0
2003/9/1,11:34:00,27,0,66.5,0,24.6,0,26.8,0
2003/9/1,11:49:00,27.2,0,66.1,0,24.7,0,26.8,0
2003/9/1,12:04:00,27.4,0,65.6,0,24.7,0,26.8,0
2003/9/1,12:19:00,27.6,0,65,0,24.7,0,26.9,0
2003/9/1,12:34:00,27.7,0,64.4,0,24.7,0,26.9,0
2003/9/1,12:49:00,27.9,0,63.9,0,24.7,0,26.9,0
2003/9/1,13:04:00,28,0,63.5,0,24.7,0,26.9,0
2003/9/1,13:19:00,28.1,0,63.1,0,24.7,0,26.9,0
2003/9/1,13:34:00,28.2,0,62.8,0,24.7,0,26.9,0
2003/9/1,13:49:00,28.2,0,62.9,0,24.8,0,26.9,0
2003/9/1,14:04:00,28.4,0,62.4,0,24.8,0,26.8,0
2003/9/1,14:19:00,28.4,0,62.2,0,24.8,0,26.8,0
2003/9/1,14:34:00,28.5,0,62,0,24.8,0,26.8,0
2003/9/1,14:49:00,28.4,0,62.2,0,24.8,0,26.8,0
2003/9/1,15:04:00,28.4,0,62,0,24.8,0,26.8,0
2003/9/1,15:19:00,28.4,0,62.1,0,24.8,0,26.8,0
2003/9/1,15:34:00,28.3,0,62.2,0,24.8,0,26.8,0
2003/9/1,15:49:00,28.3,0,62.2,0,24.8,0,26.8,0
2003/9/1,16:04:00,28.1,0,62.6,0,24.7,0,26.8,0
2003/9/1,16:19:00,28,0,62.9,0,24.7,0,26.8,0
2003/9/1,16:34:00,27.9,0,63.3,0,24.7,0,27,0
2003/9/1,16:49:00,27.8,0,63.7,0,24.7,0,28.9,0
2003/9/1,17:04:00,27.8,0,63.9,0,24.7,0,30.8,0
2003/9/1,17:19:00,27.8,0,64.6,0,24.7,0,31.6,0
2003/9/1,17:34:00,27.9,0,64.4,0,24.7,0,30.2,0
2003/9/1,17:49:00,28,0,64.3,0,24.7,0,29.1,0
2003/9/1,18:04:00,28.1,0,63.9,0,24.7,0,29.5,0
2003/9/1,18:19:00,28.1,0,64,0,24.7,0,29.4,0
2003/9/1,18:34:00,28,0,64.1,0,24.7,0,28.9,0
2003/9/1,18:49:00,28,0,64.3,0,24.7,0,28.5,0
2003/9/1,19:04:00,27.9,0,64.3,0,24.7,0,28.8,0
2003/9/1,19:19:00,27.8,0,64.7,0,24.7,0,30.2,0
2003/9/1,19:34:00,27.8,0,65.4,0,24.7,0,30,0
2003/9/1,19:49:00,27.9,0,65.3,0,24.7,0,29.4,0
2003/9/1,20:04:00,28,0,65,0,24.7,0,28.8,0
2003/9/1,20:19:00,28.1,0,64.7,0,24.6,0,28.4,0
2003/9/1,20:34:00,28,0,64.4,0,24.6,0,28.1,0
2003/9/1,20:49:00,28,0,64.4,0,24.6,0,27.9,0
2003/9/1,21:04:00,28.1,0,64.8,0,24.6,0,27.7,0
2003/9/1,21:19:00,28.1,0,65.2,0,24.6,0,27.7,0
2003/9/1,21:34:00,28.2,0,64.6,0,24.6,0,27.6,0
2003/9/1,21:49:00,28.2,0,65,0,24.6,0,27.6,0
2003/9/1,22:04:00,28.3,0,64.7,0,24.6,0,27.6,0
2003/9/1,22:19:00,28.3,0,64.6,0,24.6,0,27.6,0
2003/9/1,22:34:00,28.3,0,64.5,0,24.6,0,27.5,0
2003/9/1,22:49:00,28.2,0,64.6,0,24.6,0,27.5,0
2003/9/1,23:04:00,28.2,0,64.5,0,24.6,0,28,0
2003/9/1,23:19:00,28.1,0,64.8,0,24.5,0,28.2,0
2003/9/1,23:34:00,28,0,65,0,24.5,0,28.3,0
2003/9/1,23:49:00,27.8,0,65.1,0,24.4,0,28.2,0
2003/9/2,0:04:00,27.7,0,65.3,0,24.4,0,28.2,0
2003/9/2,0:19:00,27.6,0,65.3,0,24.4,0,28.1,0
2003/9/2,0:34:00,27.5,0,65.5,0,24.3,0,28,0
2003/9/2,0:49:00,27.5,0,65.5,0,24.3,0,28,0
2003/9/2,1:04:00,27.4,0,65.8,0,24.3,0,27.9,0
2003/9/2,1:19:00,27.3,0,65.8,0,24.3,0,27.8,0
2003/9/2,1:34:00,27.2,0,65.8,0,24.3,0,27.7,0
2003/9/2,1:49:00,27.1,0,65.9,0,24.3,0,27.7,0
2003/9/2,2:04:00,27.1,0,66.2,0,24.3,0,27.6,0
2003/9/2,2:19:00,27,0,66.2,0,24.3,0,27.5,0
2003/9/2,2:34:00,26.9,0,66.4,0,24.3,0,27.5,0
2003/9/2,2:49:00,26.9,0,66.4,0,24.3,0,27.4,0
2003/9/2,3:04:00,26.8,0,66.4,0,24.3,0,27.3,0
2003/9/2,3:19:00,26.8,0,66.6,0,24.4,0,27.3,0
2003/9/2,3:34:00,26.7,0,66.6,0,24.4,0,27.2,0
2003/9/2,3:49:00,26.6,0,66.7,0,24.4,0,27.2,0
2003/9/2,4:04:00,26.6,0,66.8,0,24.4,0,27.1,0
2003/9/2,4:19:00,26.6,0,66.9,0,24.4,0,27,0
2003/9/2,4:34:00,26.5,0,67,0,24.4,0,27,0
2003/9/2,4:49:00,26.4,0,67,0,24.4,0,27,0
2003/9/2,5:04:00,26.4,0,67.1,0,24.4,0,26.9,0
2003/9/2,5:19:00,26.4,0,67.1,0,24.4,0,27.5,0
2003/9/2,5:34:00,26.3,0,67.1,0,24.4,0,27.3,0
2003/9/2,5:49:00,26.3,0,67.5,0,24.4,0,28.1,0
2003/9/2,6:04:00,26.3,0,68.1,0,24.4,0,29.3,0
2003/9/2,6:19:00,26.3,0,68.5,0,24.5,0,29.2,0
2003/9/2,6:34:00,26.4,0,69.4,0,24.5,0,28.6,0
2003/9/2,6:49:00,26.4,0,69.7,0,24.5,0,28.2,0
2003/9/2,7:04:00,26.4,0,69.4,0,24.6,0,27.9,0
2003/9/2,7:19:00,26.4,0,69.2,0,24.6,0,27.7,0
2003/9/2,7:34:00,26.5,0,68.6,0,24.6,0,27.5,0
2003/9/2,7:49:00,26.5,0,68.7,0,24.7,0,27.5,0
2003/9/2,8:04:00,26.5,0,69.1,0,24.7,0,27.4,0
2003/9/2,8:19:00,26.5,0,69.5,0,24.7,0,27.4,0
2003/9/2,8:34:00,26.6,0,69.5,0,24.7,0,27.4,0
2003/9/2,8:49:00,26.7,0,69.8,0,24.8,0,27.4,0
2003/9/2,9:04:00,26.8,0,69.5,0,24.8,0,27.4,0
2003/9/2,9:19:00,26.9,0,70.1,0,24.9,0,27.4,0
2003/9/2,9:34:00,27,0,71,0,25,0,27.5,0
2003/9/2,9:49:00,27.1,0,71.3,0,25,0,27.5,0
2003/9/2,10:04:00,27,0,70.1,0,25,0,27.5,0
2003/9/2,10:19:00,27,0,69.7,0,25.1,0,27.5,0
2003/9/2,10:34:00,27,0,69.8,0,25.1,0,27.6,0
2003/9/2,10:49:00,27,0,69.8,0,25.2,0,27.6,0
2003/9/2,11:04:00,27,0,69.6,0,25.3,0,27.7,0
2003/9/2,11:19:00,27.1,0,69.7,0,25.3,0,27.8,0
2003/9/2,11:34:00,27.2,0,70.1,0,25.4,0,27.9,0
2003/9/2,11:49:00,27.3,0,69.9,0,25.5,0,28,0
2003/9/2,12:04:00,27.6,0,69.7,0,25.6,0,28,0
2003/9/2,12:19:00,27.8,0,69.1,0,25.6,0,28.1,0
2003/9/2,12:34:00,28,0,68.7,0,25.6,0,28.2,0
2003/9/2,12:49:00,28.1,0,68.5,0,25.7,0,28.3,0
2003/9/2,13:04:00,28.2,0,68.2,0,25.7,0,28.3,0
2003/9/2,13:19:00,28.2,0,68.1,0,25.8,0,28.4,0
2003/9/2,13:34:00,28.2,0,68,0,25.8,0,28.5,0
2003/9/2,13:49:00,28.2,0,68,0,25.8,0,28.5,0
2003/9/2,14:04:00,28.2,0,68.2,0,25.9,0,28.6,0
2003/9/2,14:19:00,28.2,0,68.3,0,25.9,0,28.7,0
2003/9/2,14:34:00,28.2,0,68.5,0,25.9,0,28.8,0
2003/9/2,14:49:00,28.3,0,68.7,0,26,0,28.8,0
2003/9/2,15:04:00,28.3,0,68.8,0,26,0,28.9,0
2003/9/2,15:19:00,28.3,0,69,0,26,0,28.9,0
2003/9/2,15:34:00,28.3,0,69.2,0,26,0,29,0
2003/9/2,15:49:00,28.3,0,69.4,0,26.1,0,29.1,0
2003/9/2,16:04:00,28.4,0,69.5,0,26.1,0,29.1,0
2003/9/2,16:19:00,28.4,0,69.6,0,26.1,0,29.2,0
2003/9/2,16:34:00,28.4,0,69.7,0,26.1,0,29.2,0
2003/9/2,16:49:00,28.5,0,69.8,0,26.1,0,29.2,0
2003/9/2,17:04:00,28.6,0,69.6,0,26.1,0,29.2,0
2003/9/2,17:19:00,28.6,0,69.3,0,26.1,0,30.6,0
2003/9/2,17:34:00,28.6,0,69.3,0,26.1,0,32,0
2003/9/2,17:49:00,28.6,0,69.1,0,26.1,0,32.5,0
2003/9/2,18:04:00,28.5,0,68.9,0,26.1,0,31.6,0
2003/9/2,18:19:00,28.5,0,68.9,0,26.1,0,30.7,0
2003/9/2,18:34:00,28.4,0,68.8,0,26.1,0,30,0
2003/9/2,18:49:00,28.4,0,68.9,0,26.1,0,29.7,0
2003/9/2,19:04:00,28.4,0,69.7,0,26.1,0,31,0
2003/9/2,19:19:00,28.4,0,70,0,26.1,0,30.9,0
2003/9/2,19:34:00,28.4,0,70.7,0,26.1,0,30.9,0
2003/9/2,19:49:00,28.5,0,71,0,26.1,0,30.4,0
2003/9/2,20:04:00,28.6,0,71.1,0,26.1,0,29.9,0
2003/9/2,20:19:00,28.7,0,70.2,0,26.1,0,29.5,0
2003/9/2,20:34:00,28.8,0,70.1,0,26.1,0,29.3,0
2003/9/2,20:49:00,28.8,0,70.1,0,26.1,0,29.2,0
2003/9/2,21:04:00,28.9,0,70,0,26.2,0,29.1,0
2003/9/2,21:19:00,28.9,0,70.3,0,26.1,0,29.1,0
2003/9/2,21:34:00,28.9,0,70,0,26.2,0,29,0
2003/9/2,21:49:00,28.8,0,70,0,26.2,0,29,0
2003/9/2,22:04:00,28.9,0,69.3,0,26.2,0,29,0
2003/9/2,22:19:00,28.4,0,66.4,0,26.2,0,29,0
2003/9/2,22:34:00,28.2,0,68.4,0,26.2,0,28.9,0
2003/9/2,22:49:00,28,0,68.9,0,26.2,0,28.9,0
2003/9/2,23:04:00,28,0,69.2,0,26.2,0,28.9,0
2003/9/2,23:19:00,28.1,0,69.5,0,26.2,0,28.6,0
2003/9/2,23:34:00,28.1,0,69.5,0,26.2,0,28.4,0
2003/9/2,23:49:00,28.1,0,70.4,0,26.2,0,28.3,0
2003/9/3,0:04:00,28.1,0,70.9,0,26.2,0,28.3,0
2003/9/3,0:19:00,28,0,71.1,0,26.2,0,28.2,0
2003/9/3,0:34:00,28,0,71.2,0,26.2,0,28.2,0
2003/9/3,0:49:00,28,0,71.6,0,26.2,0,28.2,0
2003/9/3,1:04:00,27.9,0,71.6,0,26.2,0,28.3,0
2003/9/3,1:19:00,27.8,0,71.8,0,26.2,0,28.3,0
2003/9/3,1:34:00,27.8,0,71.8,0,26.2,0,28.4,0
2003/9/3,1:49:00,27.8,0,71.9,0,26.2,0,28.4,0
2003/9/3,2:04:00,27.8,0,72.2,0,26.3,0,28.4,0
2003/9/3,2:19:00,27.7,0,72.2,0,26.3,0,28.4,0
2003/9/3,2:34:00,27.7,0,72.3,0,26.3,0,28.4,0
2003/9/3,2:49:00,27.7,0,72.4,0,26.3,0,28.4,0
2003/9/3,3:04:00,27.7,0,72.6,0,26.3,0,28.4,0
2003/9/3,3:19:00,27.6,0,72.8,0,26.3,0,28.4,0
2003/9/3,3:34:00,27.6,0,72.7,0,26.3,0,28.4,0
2003/9/3,3:49:00,27.6,0,72.8,0,26.3,0,28.4,0
2003/9/3,4:04:00,27.6,0,72.8,0,26.3,0,28.4,0
2003/9/3,4:19:00,27.6,0,73,0,26.3,0,28.4,0
2003/9/3,4:34:00,27.5,0,73.7,0,26.3,0,28.4,0
2003/9/3,4:49:00,27.3,0,73.3,0,26.3,0,28.4,0
2003/9/3,5:04:00,27.2,0,70.2,0,26.3,0,28.4,0
2003/9/3,5:19:00,27,0,68.2,0,26.2,0,28.4,0
2003/9/3,5:34:00,26.9,0,67,0,26.2,0,28.4,0
2003/9/3,5:49:00,26.8,0,66.5,0,26.2,0,28.4,0
2003/9/3,6:04:00,26.7,0,65.7,0,26.1,0,28.4,0
2003/9/3,6:19:00,26.6,0,65.4,0,26.1,0,28.4,0
2003/9/3,6:34:00,26.7,0,68.1,0,26.1,0,28.6,0
2003/9/3,6:49:00,26.9,0,73.1,0,26.1,0,30.2,0
2003/9/3,7:04:00,27.1,0,73.9,0,26.1,0,31.2,0
2003/9/3,7:19:00,27.2,0,76.4,0,26.1,0,30.5,0
2003/9/3,7:34:00,27.3,0,76.9,0,26.2,0,29.7,0
2003/9/3,7:49:00,27.4,0,74.5,0,26.2,0,29.3,0
2003/9/3,8:04:00,27.4,0,73.7,0,26.3,0,29,0
2003/9/3,8:19:00,27.5,0,73.5,0,26.3,0,28.9,0
2003/9/3,8:34:00,27.6,0,73.2,0,26.4,0,28.8,0
2003/9/3,8:49:00,27.6,0,73.6,0,26.5,0,28.8,0
2003/9/3,9:04:00,27.6,0,73.2,0,26.5,0,28.7,0
2003/9/3,9:19:00,27.5,0,74.5,0,26.5,0,28.7,0
2003/9/3,9:34:00,27.5,0,73.4,0,26.5,0,28.6,0
2003/9/3,9:49:00,27.4,0,72.3,0,26.5,0,28.5,0
2003/9/3,10:04:00,27.4,0,71.9,0,26.5,0,28.4,0
2003/9/3,10:19:00,27.5,0,71.9,0,26.5,0,28.4,0
2003/9/3,10:34:00,27.5,0,71.8,0,26.5,0,28.4,0
2003/9/3,10:49:00,27.5,0,71.6,0,26.5,0,28.4,0
2003/9/3,11:04:00,27.6,0,71.4,0,26.5,0,28.4,0
2003/9/3,11:19:00,27.6,0,71.3,0,26.5,0,28.4,0
2003/9/3,11:34:00,27.6,0,71.2,0,26.5,0,28.4,0
2003/9/3,11:49:00,27.6,0,71.1,0,26.6,0,28.4,0
2003/9/3,12:04:00,27.6,0,71,0,26.6,0,28.4,0
2003/9/3,12:19:00,27.6,0,70.9,0,26.6,0,28.5,0
2003/9/3,12:34:00,27.6,0,70.9,0,26.6,0,28.5,0
2003/9/3,12:49:00,27.7,0,71,0,26.6,0,28.5,0
2003/9/3,13:04:00,27.8,0,70.9,0,26.6,0,28.5,0
2003/9/3,13:19:00,27.9,0,70.5,0,26.6,0,28.6,0
2003/9/3,13:34:00,28.1,0,69.8,0,26.6,0,28.6,0
2003/9/3,13:49:00,28.3,0,69,0,26.6,0,28.6,0
2003/9/3,14:04:00,28.6,0,68.1,0,26.7,0,28.6,0
2003/9/3,14:19:00,28.7,0,67.4,0,26.7,0,28.6,0
2003/9/3,14:34:00,28.9,0,66.7,0,26.7,0,28.6,0
2003/9/3,14:49:00,29,0,66.1,0,26.7,0,28.6,0
2003/9/3,15:04:00,29.1,0,65.9,0,26.7,0,28.6,0
2003/9/3,15:19:00,29.1,0,65.9,0,26.6,0,28.6,0
2003/9/3,15:34:00,28.7,0,62.9,0,26.6,0,28.6,0
2003/9/3,15:49:00,28.4,0,62.8,0,26.6,0,28.6,0
2003/9/3,16:04:00,28.7,0,66.4,0,26.5,0,28.9,0
2003/9/3,16:19:00,28.7,0,67.7,0,26.5,0,28.9,0
2003/9/3,16:34:00,28.7,0,68.2,0,26.5,0,28.8,0
2003/9/3,16:49:00,28.8,0,68.6,0,26.5,0,28.7,0
2003/9/3,17:04:00,28.9,0,68.4,0,26.4,0,28.7,0
2003/9/3,17:19:00,28.9,0,67.7,0,26.4,0,30.2,0
2003/9/3,17:34:00,29,0,68.1,0,26.4,0,31.8,0
2003/9/3,17:49:00,28.8,0,67,0,26.4,0,31.5,0
2003/9/3,18:04:00,29.1,0,65.5,0,26.3,0,30.5,0
2003/9/3,18:19:00,29.1,0,63.6,0,26.3,0,29.8,0
2003/9/3,18:34:00,29.2,0,63.5,0,26.3,0,29.4,0
2003/9/3,18:49:00,29.2,0,62.9,0,26.3,0,29.1,0
2003/9/3,19:04:00,29.2,0,62.5,0,26.3,0,28.9,0
2003/9/3,19:19:00,29.2,0,62.2,0,26.2,0,28.8,0
2003/9/3,19:34:00,29.2,0,62,0,26.2,0,28.7,0
2003/9/3,19:49:00,29.3,0,62.2,0,26.2,0,28.7,0
2003/9/3,20:04:00,29.3,0,62.2,0,26.2,0,28.6,0
2003/9/3,20:19:00,29.3,0,61,0,26.2,0,28.4,0
2003/9/3,20:34:00,29.3,0,61.1,0,26.1,0,28.2,0
2003/9/3,20:49:00,29.3,0,61.4,0,26.1,0,29.1,0
2003/9/3,21:04:00,29.3,0,63.3,0,26.1,0,30.2,0
2003/9/3,21:19:00,29.2,0,66.6,0,26.1,0,29.6,0
2003/9/3,21:34:00,29,0,64.1,0,26.1,0,28.8,0
2003/9/3,21:49:00,29,0,61.7,0,26.1,0,28.4,0
2003/9/3,22:04:00,28.8,0,60.3,0,26,0,28.2,0
2003/9/3,22:19:00,28.8,0,58.6,0,26,0,28.1,0
2003/9/3,22:34:00,28.7,0,58.2,0,26,0,28,0
2003/9/3,22:49:00,28.3,0,56.3,0,25.9,0,27.9,0
2003/9/3,23:04:00,27.9,0,55.6,0,25.9,0,27.8,0
2003/9/3,23:19:00,27.6,0,55.3,0,25.8,0,27.7,0
2003/9/3,23:34:00,27.3,0,55.2,0,25.8,0,27.6,0
2003/9/3,23:49:00,27.1,0,55.1,0,25.7,0,27.5,0
2003/9/4,0:04:00,26.9,0,55,0,25.7,0,27.4,0
2003/9/4,0:19:00,26.7,0,54.9,0,25.6,0,27.3,0
2003/9/4,0:34:00,26.5,0,55.2,0,25.5,0,27.2,0
2003/9/4,0:49:00,26.3,0,55.1,0,25.5,0,27.1,0
2003/9/4,1:04:00,26.2,0,55.1,0,25.4,0,27,0
2003/9/4,1:19:00,26,0,55.2,0,25.3,0,26.9,0
2003/9/4,1:34:00,25.9,0,55,0,25.3,0,26.8,0
2003/9/4,1:49:00,25.8,0,54.5,0,25.2,0,26.7,0
2003/9/4,2:04:00,25.7,0,54.5,0,25.2,0,26.6,0
2003/9/4,2:19:00,25.6,0,54.6,0,25.1,0,26.5,0
2003/9/4,2:34:00,25.5,0,55,0,25.1,0,26.4,0
2003/9/4,2:49:00,25.5,0,54.7,0,25,0,26.3,0
2003/9/4,3:04:00,25.4,0,54.5,0,25,0,26.2,0
2003/9/4,3:19:00,25.4,0,54.6,0,25,0,26.1,0
2003/9/4,3:34:00,25.3,0,54.8,0,25,0,26,0
2003/9/4,3:49:00,25.4,0,54.4,0,24.9,0,25.9,0
2003/9/4,4:04:00,25.4,0,54.1,0,24.9,0,25.8,0
2003/9/4,4:19:00,25.3,0,53.8,0,24.9,0,25.8,0
2003/9/4,4:34:00,25.2,0,53.2,0,24.9,0,25.7,0
2003/9/4,4:49:00,25.2,0,53.3,0,24.9,0,25.6,0
2003/9/4,5:04:00,25,0,54.2,0,24.8,0,25.5,0
2003/9/4,5:19:00,25,0,54.3,0,24.8,0,25.8,0
2003/9/4,5:34:00,25.2,0,55.5,0,24.8,0,26.2,0
2003/9/4,5:49:00,25.4,0,56.3,0,24.8,0,27,0
2003/9/4,6:04:00,25.4,0,59.5,0,24.9,0,28.6,0
2003/9/4,6:19:00,25.4,0,64.5,0,25,0,28.7,0
2003/9/4,6:34:00,25.5,0,65,0,25.2,0,28.3,0
2003/9/4,6:49:00,25.5,0,65.6,0,25.4,0,28,0
2003/9/4,7:04:00,25.7,0,65,0,25.5,0,27.8,0
2003/9/4,7:19:00,25.7,0,64,0,25.7,0,27.7,0
2003/9/4,7:34:00,25.8,0,63.8,0,25.9,0,27.6,0
2003/9/4,7:49:00,25.9,0,62.8,0,26,0,27.5,0
2003/9/4,8:04:00,25.9,0,62.6,0,26.1,0,27.7,0
2003/9/4,8:19:00,25.9,0,62.6,0,26.2,0,27.9,0
2003/9/4,8:34:00,25.9,0,61.4,0,26.2,0,28.2,0
2003/9/4,8:49:00,25.9,0,61.2,0,26.3,0,28.4,0
2003/9/4,9:04:00,26,0,61.5,0,26.3,0,28.5,0
2003/9/4,9:19:00,26,0,61.2,0,26.4,0,28.5,0
2003/9/4,9:34:00,25.9,0,61.7,0,26.4,0,28.3,0
2003/9/4,9:49:00,25.9,0,62.3,0,26.4,0,28.1,0
2003/9/4,10:04:00,25.8,0,63.6,0,26.5,0,27.9,0
2003/9/4,10:19:00,25.9,0,63.6,0,26.5,0,27.9,0
2003/9/4,10:34:00,25.9,0,63.8,0,26.5,0,27.7,0
2003/9/4,10:49:00,25.9,0,64.3,0,26.5,0,27.7,0
2003/9/4,11:04:00,26,0,64.2,0,26.5,0,27.7,0
2003/9/4,11:19:00,26.2,0,64.7,0,26.5,0,27.7,0
2003/9/4,11:34:00,26.4,0,63.9,0,26.5,0,27.7,0
2003/9/4,11:49:00,26.6,0,63.8,0,26.5,0,27.8,0
2003/9/4,12:04:00,26.9,0,63.1,0,26.5,0,27.9,0
2003/9/4,12:19:00,27.1,0,62.7,0,26.6,0,27.9,0
2003/9/4,12:34:00,27.3,0,62.7,0,26.6,0,28,0
2003/9/4,12:49:00,27.5,0,62.5,0,26.6,0,28,0
2003/9/4,13:04:00,27.7,0,61.7,0,26.6,0,28.1,0
2003/9/4,13:19:00,27.8,0,61,0,26.6,0,28.1,0
2003/9/4,13:34:00,28,0,60.4,0,26.6,0,28.1,0
2003/9/4,13:49:00,28,0,59.6,0,26.6,0,28.2,0
2003/9/4,14:04:00,28.1,0,59.6,0,26.7,0,28.2,0
2003/9/4,14:19:00,28.2,0,59.5,0,26.7,0,28.2,0
2003/9/4,14:34:00,28.3,0,59.5,0,26.7,0,28.2,0
2003/9/4,14:49:00,28.3,0,60.1,0,26.7,0,28.4,0
2003/9/4,15:04:00,28.3,0,59.8,0,26.7,0,29.8,0
2003/9/4,15:19:00,28.3,0,59.7,0,26.7,0,29.6,0
2003/9/4,15:34:00,28.2,0,59.8,0,26.7,0,29.3,0
2003/9/4,15:49:00,28.3,0,59.5,0,26.7,0,29.1,0
2003/9/4,16:04:00,28.3,0,59.4,0,26.7,0,28.9,0
2003/9/4,16:19:00,28.4,0,59.2,0,26.6,0,29.2,0
2003/9/4,16:34:00,28.3,0,58.8,0,26.6,0,30.9,0
2003/9/4,16:49:00,28.3,0,59.2,0,26.6,0,32.1,0
2003/9/4,17:04:00,28.2,0,59.6,0,26.5,0,32.7,0
2003/9/4,17:19:00,28.1,0,59.9,0,26.5,0,32.5,0
2003/9/4,17:34:00,28,0,59.2,0,26.5,0,31.6,0
2003/9/4,17:49:00,27.9,0,59.7,0,26.4,0,30.9,0
2003/9/4,18:04:00,27.8,0,59.9,0,26.4,0,31.9,0
2003/9/4,18:19:00,27.7,0,60.2,0,26.3,0,32.7,0
2003/9/4,18:34:00,27.6,0,60.5,0,26.3,0,33.2,0
2003/9/4,18:49:00,27.6,0,60.9,0,26.2,0,33.5,0
2003/9/4,19:04:00,27.6,0,61.1,0,26.2,0,33.5,0
2003/9/4,19:19:00,27.5,0,61.6,0,26.1,0,32.8,0
2003/9/4,19:34:00,27.5,0,61.8,0,26.1,0,31.2,0
2003/9/4,19:49:00,27.6,0,61.8,0,26.1,0,30,0
2003/9/4,20:04:00,27.7,0,61.6,0,26,0,29.4,0
2003/9/4,20:19:00,27.7,0,61.4,0,26,0,28.9,0
2003/9/4,20:34:00,27.6,0,61.2,0,25.9,0,28.6,0
2003/9/4,20:49:00,27.6,0,61.5,0,25.9,0,28.4,0
2003/9/4,21:04:00,27.7,0,61.8,0,25.8,0,28.7,0
2003/9/4,21:19:00,27.8,0,62.3,0,25.8,0,30.3,0
2003/9/4,21:34:00,27.9,0,62.2,0,25.7,0,30.5,0
2003/9/4,21:49:00,28,0,62,0,25.7,0,29.7,0
2003/9/4,22:04:00,28.1,0,61.5,0,25.6,0,29.1,0
2003/9/4,22:19:00,28.2,0,60.8,0,25.5,0,28.6,0
2003/9/4,22:34:00,28.1,0,60.3,0,25.5,0,28.4,0
2003/9/4,22:49:00,28.2,0,61.6,0,25.5,0,28.2,0
2003/9/4,23:04:00,28.2,0,60.8,0,25.3,0,28,0
2003/9/4,23:19:00,28.2,0,61.7,0,25.2,0,28,0
2003/9/4,23:34:00,28.2,0,60.8,0,25.2,0,27.9,0
2003/9/4,23:49:00,28.1,0,60.9,0,25.1,0,27.9,0
2003/9/5,0:04:00,28,0,61.1,0,25.2,0,27.8,0
2003/9/5,0:19:00,27.8,0,61.2,0,25.2,0,27.8,0
2003/9/5,0:34:00,27.7,0,61.4,0,25.2,0,27.7,0
2003/9/5,0:49:00,27.6,0,61.7,0,25.1,0,27.7,0
2003/9/5,1:04:00,27.5,0,61.9,0,25.1,0,27.7,0
2003/9/5,1:19:00,27.5,0,62,0,25.1,0,27.6,0
2003/9/5,1:34:00,27.3,0,62.2,0,25.1,0,27.6,0
2003/9/5,1:49:00,27.2,0,62.3,0,25.1,0,27.5,0
2003/9/5,2:04:00,27.2,0,62.4,0,25,0,27.5,0
2003/9/5,2:19:00,27.1,0,62.4,0,25,0,27.4,0
2003/9/5,2:34:00,27,0,62.6,0,25,0,27.4,0
2003/9/5,2:49:00,26.9,0,62.6,0,24.9,0,27.3,0
2003/9/5,3:04:00,26.9,0,62.6,0,24.9,0,27.2,0
2003/9/5,3:19:00,26.8,0,62.5,0,24.9,0,27.2,0
2003/9/5,3:34:00,26.7,0,62.6,0,24.8,0,27.1,0
2003/9/5,3:49:00,26.7,0,62.6,0,24.8,0,27,0
2003/9/5,4:04:00,26.6,0,62.5,0,24.8,0,27,0
2003/9/5,4:19:00,26.5,0,62.5,0,24.7,0,26.9,0
2003/9/5,4:34:00,26.5,0,62.5,0,24.7,0,27.9,0
2003/9/5,4:49:00,26.4,0,62.6,0,24.7,0,27.9,0
2003/9/5,5:04:00,26.4,0,62.6,0,24.6,0,27.6,0
2003/9/5,5:19:00,26.5,0,62.2,0,24.6,0,27.4,0
2003/9/5,5:34:00,26.1,0,59.1,0,24.5,0,27.1,0
2003/9/5,5:49:00,26,0,58.5,0,24.4,0,27.2,0
2003/9/5,6:04:00,25.9,0,59,0,24.4,0,28,0
2003/9/5,6:19:00,25.8,0,57.8,0,24.5,0,27.9,0
2003/9/5,6:34:00,25.6,0,57.7,0,24.6,0,27.7,0
2003/9/5,6:49:00,25.6,0,58.6,0,24.7,0,27.5,0
2003/9/5,7:04:00,25.7,0,59.2,0,24.9,0,27.5,0
2003/9/5,7:19:00,25.8,0,59.7,0,25.1,0,27.6,0
2003/9/5,7:34:00,25.7,0,60.3,0,25.3,0,27.5,0
2003/9/5,7:49:00,25.9,0,60.6,0,25.4,0,27.5,0
2003/9/5,8:04:00,25.9,0,60.9,0,25.6,0,27.5,0
2003/9/5,8:19:00,26,0,60.9,0,25.8,0,27.8,0
2003/9/5,8:34:00,26.1,0,60.9,0,25.9,0,28,0
2003/9/5,8:49:00,26.3,0,60.2,0,26,0,28.4,0
2003/9/5,9:04:00,26.5,0,59.4,0,26.1,0,28.5,0
2003/9/5,9:19:00,26.8,0,58.9,0,26.2,0,28.5,0
2003/9/5,9:34:00,26.9,0,58.9,0,26.3,0,28.4,0
2003/9/5,9:49:00,27,0,58.4,0,26.3,0,28.3,0
2003/9/5,10:04:00,27.1,0,58.7,0,26.4,0,28.2,0
2003/9/5,10:19:00,27.1,0,59.8,0,26.4,0,28.1,0
2003/9/5,10:34:00,27.1,0,60.4,0,26.4,0,28,0
2003/9/5,10:49:00,27.1,0,61.1,0,26.5,0,28,0
2003/9/5,11:04:00,27.1,0,61.9,0,26.5,0,28,0
2003/9/5,11:19:00,27.1,0,62.3,0,26.5,0,28,0
2003/9/5,11:34:00,27,0,63.1,0,26.5,0,28,0
2003/9/5,11:49:00,27,0,63,0,26.5,0,28,0
2003/9/5,12:04:00,27,0,62.9,0,26.5,0,28,0
2003/9/5,12:19:00,27,0,63.3,0,26.5,0,28,0
2003/9/5,12:34:00,27,0,63.7,0,26.5,0,28.1,0
2003/9/5,12:49:00,27,0,63.5,0,26.6,0,28.1,0
2003/9/5,13:04:00,27,0,63.4,0,26.6,0,28.2,0
2003/9/5,13:19:00,27.1,0,63.7,0,26.6,0,28.3,0
2003/9/5,13:34:00,27.1,0,63.6,0,26.6,0,28.3,0
2003/9/5,13:49:00,27.2,0,62.8,0,26.7,0,28.4,0
2003/9/5,14:04:00,27.2,0,62.8,0,26.7,0,28.5,0
2003/9/5,14:19:00,27.3,0,63.4,0,26.7,0,28.5,0
2003/9/5,14:34:00,27.3,0,63.7,0,26.7,0,28.6,0
2003/9/5,14:49:00,27.3,0,63.7,0,26.7,0,28.6,0
2003/9/5,15:04:00,27.4,0,64.3,0,26.8,0,28.6,0
2003/9/5,15:19:00,27.4,0,64.3,0,26.8,0,28.6,0
2003/9/5,15:34:00,27.5,0,64.8,0,26.8,0,28.6,0
2003/9/5,15:49:00,27.5,0,64.7,0,26.8,0,28.6,0
2003/9/5,16:04:00,27.5,0,64.9,0,26.8,0,28.7,0
2003/9/5,16:19:00,27.5,0,64.8,0,26.8,0,28.6,0
2003/9/5,16:34:00,27.6,0,64.9,0,26.8,0,28.6,0
2003/9/5,16:49:00,27.6,0,65,0,26.8,0,28.6,0
2003/9/5,17:04:00,27.6,0,64.9,0,26.8,0,28.6,0
2003/9/5,17:19:00,27.6,0,64.4,0,26.8,0,28.6,0
2003/9/5,17:34:00,27.7,0,64.3,0,26.8,0,28.5,0
2003/9/5,17:49:00,27.6,0,62.7,0,26.7,0,28.7,0
2003/9/5,18:04:00,27.7,0,63.1,0,26.7,0,28.9,0
2003/9/5,18:19:00,27.8,0,63.4,0,26.7,0,28.9,0
2003/9/5,18:34:00,27.8,0,63.5,0,26.7,0,28.8,0
2003/9/5,18:49:00,27.9,0,63.7,0,26.7,0,28.8,0
2003/9/5,19:04:00,27.9,0,64,0,26.7,0,29.5,0
2003/9/5,19:19:00,28.1,0,64.2,0,26.7,0,31.6,0
2003/9/5,19:34:00,28.3,0,64.2,0,26.7,0,32.7,0
2003/9/5,19:49:00,28.5,0,62.1,0,26.7,0,33.2,0
2003/9/5,20:04:00,28.6,0,63.8,0,26.6,0,32.4,0
2003/9/5,20:19:00,28.5,0,61.2,0,26.6,0,32,0
2003/9/5,20:34:00,28.5,0,60.6,0,26.6,0,31.3,0
2003/9/5,20:49:00,28.6,0,60.9,0,26.6,0,30.7,0
2003/9/5,21:04:00,28.6,0,60.7,0,26.6,0,32,0
2003/9/5,21:19:00,28.6,0,61.2,0,26.6,0,33,0
2003/9/5,21:34:00,28.7,0,63.4,0,26.6,0,32.1,0
2003/9/5,21:49:00,28.8,0,64.2,0,26.6,0,31.1,0
2003/9/5,22:04:00,29,0,61.8,0,26.6,0,30.4,0
2003/9/5,22:19:00,28.6,0,57.9,0,26.6,0,30,0
2003/9/5,22:34:00,28.5,0,59.6,0,26.5,0,29.5,0
2003/9/5,22:49:00,28.6,0,59.8,0,26.4,0,29.1,0
2003/9/5,23:04:00,28.5,0,57.6,0,26.3,0,28.8,0
2003/9/5,23:19:00,28.3,0,55.9,0,26.3,0,28.5,0
2003/9/5,23:34:00,28.2,0,55.3,0,26.3,0,28.6,0
2003/9/5,23:49:00,28,0,54.7,0,26.3,0,28.5,0
2003/9/6,0:04:00,27.8,0,54.7,0,26.3,0,28.4,0
2003/9/6,0:19:00,27.8,0,54.9,0,26.3,0,28.2,0
2003/9/6,0:34:00,27.5,0,53.9,0,26.2,0,28.1,0
2003/9/6,0:49:00,27.3,0,53.8,0,26.2,0,28,0
2003/9/6,1:04:00,27.2,0,53.8,0,26.2,0,27.9,0
2003/9/6,1:19:00,27.1,0,54,0,26.1,0,27.9,0
2003/9/6,1:34:00,27.3,0,55.2,0,26.1,0,27.9,0
2003/9/6,1:49:00,27.3,0,56.6,0,26.1,0,27.9,0
2003/9/6,2:04:00,27.3,0,57.6,0,26.1,0,27.9,0
2003/9/6,2:19:00,27.3,0,58.3,0,26.1,0,28,0
2003/9/6,2:34:00,27.3,0,58.9,0,26.1,0,28,0
2003/9/6,2:49:00,27.3,0,59.3,0,26.1,0,28,0
2003/9/6,3:04:00,27.3,0,59.6,0,26,0,28.1,0
2003/9/6,3:19:00,27.3,0,60,0,26,0,28.1,0
2003/9/6,3:34:00,27.3,0,60.3,0,26,0,28.1,0
2003/9/6,3:49:00,27.3,0,60.4,0,26,0,28.1,0
2003/9/6,4:04:00,27.3,0,60.6,0,26,0,28.1,0
2003/9/6,4:19:00,27.3,0,60.8,0,26,0,28.1,0
2003/9/6,4:34:00,27.3,0,61,0,26,0,28.1,0
2003/9/6,4:49:00,27.3,0,61.1,0,26,0,28.1,0
2003/9/6,5:04:00,27.3,0,61.4,0,26,0,28.1,0
2003/9/6,5:19:00,27.3,0,61.7,0,26,0,28.4,0
2003/9/6,5:34:00,27.3,0,62,0,26,0,28.6,0
2003/9/6,5:49:00,27.3,0,62,0,26,0,29.4,0
2003/9/6,6:04:00,27.4,0,62.9,0,26,0,29.3,0
2003/9/6,6:19:00,27.4,0,62.9,0,26,0,29,0
2003/9/6,6:34:00,27.4,0,63,0,26,0,28.7,0
2003/9/6,6:49:00,27.4,0,63.4,0,26,0,28.6,0
2003/9/6,7:04:00,27.4,0,64.5,0,26,0,28.5,0
2003/9/6,7:19:00,27.3,0,64.4,0,26,0,28.4,0
2003/9/6,7:34:00,27.3,0,64.3,0,26,0,29.8,0
2003/9/6,7:49:00,27.3,0,63.6,0,26,0,30.5,0
2003/9/6,8:04:00,27.3,0,63.8,0,26,0,29.9,0
2003/9/6,8:19:00,27.3,0,64.1,0,26.1,0,31,0
2003/9/6,8:34:00,27.4,0,64.6,0,26.1,0,31.4,0
2003/9/6,8:49:00,27.4,0,72.6,0,26.1,0,30.4,0
2003/9/6,9:04:00,27.4,0,74,0,26.1,0,29.6,0
2003/9/6,9:19:00,27.6,0,71.9,0,26.2,0,29.2,0
2003/9/6,9:34:00,27.8,0,72.4,0,26.2,0,29,0
2003/9/6,9:49:00,27.9,0,72.8,0,26.4,0,28.9,0
2003/9/6,10:04:00,28,0,72.7,0,26.5,0,28.7,0
2003/9/6,10:19:00,28,0,71.9,0,26.7,0,28.5,0
2003/9/6,10:34:00,28,0,72.5,0,26.8,0,28.3,0